Time,TemperatureF,DewpointF,PressureIn,WindDirection,WindDirectionDegrees,WindSpeedMPH,WindSpeedGustMPH,Humidity,HourlyPrecipIn,Conditions,Clouds,dailyrainin,SoftwareType,DateUTC
2013-03-31 00:00:00,71.0,61.5,29.96,NE,45,0.0,2.0,72,0.00,,---,0.00,VWS V14.01,2013-03-31 10:00:00,
2013-03-31 00:30:00,69.9,60.9,29.95,NE,45,1.0,3.0,73,0.00,,---,0.00,VWS V14.01,2013-03-31 10:30:00,
2013-03-31 01:00:00,69.8,61.2,29.95,NE,45,0.0,3.0,74,0.00,,---,0.00,VWS V14.01,2013-03-31 11:00:00,
2013-03-31 01:30:00,69.8,61.2,29.93,NE,45,2.0,8.0,74,0.00,,---,0.00,VWS V14.01,2013-03-31 11:30:00,
2013-03-31 02:00:00,70.6,61.1,29.93,East,90,4.0,10.0,72,0.00,,---,0.00,VWS V14.01,2013-03-31 12:00:00,
2013-03-31 02:30:00,70.3,60.9,29.94,East,90,3.0,8.0,72,0.00,,---,0.00,VWS V14.01,2013-03-31 12:30:00,
2013-03-31 03:00:00,70.3,60.9,29.94,East,90,4.0,11.0,72,0.00,,---,0.00,VWS V14.01,2013-03-31 13:00:00,
2013-03-31 03:30:00,69.9,60.5,29.93,East,90,3.0,11.0,72,0.00,,---,0.00,VWS V14.01,2013-03-31 13:30:00,
2013-03-31 04:00:00,69.9,60.5,29.94,ESE,112,3.0,7.0,72,0.00,,---,0.00,VWS V14.01,2013-03-31 14:00:00,
2013-03-31 04:30:00,71.0,60.7,29.94,East,90,4.0,12.0,70,0.00,,---,0.00,VWS V14.01,2013-03-31 14:30:00,
2013-03-31 05:00:00,70.9,60.6,29.95,ENE,68,4.0,12.0,70,0.00,,---,0.00,VWS V14.01,2013-03-31 15:00:00,
2013-03-31 05:30:00,70.9,60.6,29.95,East,90,3.0,8.0,70,0.00,,---,0.00,VWS V14.01,2013-03-31 15:30:00,
2013-03-31 06:00:00,71.0,60.7,29.96,East,90,3.0,8.0,70,0.00,,---,0.00,VWS V14.01,2013-03-31 16:00:00,
2013-03-31 06:30:00,71.2,60.9,29.97,East,90,3.0,7.0,70,0.00,,---,0.00,VWS V14.01,2013-03-31 16:30:00,
2013-03-31 07:00:00,71.5,61.2,29.97,East,90,2.0,7.0,70,0.00,,---,0.00,VWS V14.01,2013-03-31 17:00:00,
2013-03-31 07:30:00,73.3,62.1,29.98,East,90,1.0,6.0,68,0.00,,---,0.00,VWS V14.01,2013-03-31 17:30:00,
2013-03-31 08:00:00,74.2,63.4,29.98,NE,45,1.0,5.0,69,0.00,,---,0.00,VWS V14.01,2013-03-31 18:00:00,
2013-03-31 08:30:00,75.4,65.3,29.99,NNW,338,2.0,6.0,71,0.00,,---,0.00,VWS V14.01,2013-03-31 18:30:00,
2013-03-31 09:00:00,76.0,64.7,29.99,West,270,4.0,7.0,68,0.00,,---,0.00,VWS V14.01,2013-03-31 19:00:00,
2013-03-31 09:30:00,76.6,64.4,29.99,West,270,3.0,6.0,66,0.00,,---,0.00,VWS V14.01,2013-03-31 19:30:00,
2013-03-31 10:00:00,76.6,63.5,29.98,West,270,5.0,9.0,64,0.00,,---,0.00,VWS V14.01,2013-03-31 20:00:00,
2013-03-31 10:30:00,77.8,62.8,29.98,WNW,292,6.0,11.0,60,0.00,,---,0.00,VWS V14.01,2013-03-31 20:30:00,
2013-03-31 11:00:00,77.8,62.3,29.97,WNW,292,7.0,10.0,59,0.00,,---,0.00,VWS V14.01,2013-03-31 21:00:00,
2013-03-31 11:30:00,77.8,62.3,29.96,WNW,292,9.0,13.0,59,0.00,,---,0.00,VWS V14.01,2013-03-31 21:30:00,
2013-03-31 12:00:00,78.2,64.1,29.96,WNW,292,10.0,14.0,62,0.00,,---,0.00,VWS V14.01,2013-03-31 22:00:00,
2013-03-31 12:30:00,78.4,64.8,29.96,WNW,292,11.0,15.0,63,0.00,,---,0.00,VWS V14.01,2013-03-31 22:30:00,
2013-03-31 13:00:00,78.3,64.2,29.96,West,270,9.0,14.0,62,0.00,,---,0.00,VWS V14.01,2013-03-31 23:00:00,
2013-03-31 13:30:00,78.3,65.1,29.95,WNW,292,10.0,16.0,64,0.00,,---,0.00,VWS V14.01,2013-03-31 23:30:00,
2013-03-31 14:00:00,77.5,63.5,29.94,WNW,292,12.0,17.0,62,0.00,,---,0.00,VWS V14.01,2013-04-01 00:00:00,
2013-03-31 14:30:00,76.4,62.9,29.93,WNW,292,12.0,17.0,63,0.00,,---,0.00,VWS V14.01,2013-04-01 00:30:00,
2013-03-31 15:00:00,75.9,62.4,29.94,West,270,10.0,15.0,63,0.00,,---,0.00,VWS V14.01,2013-04-01 01:00:00,
2013-03-31 15:30:00,76.2,63.1,29.94,West,270,6.0,12.0,64,0.00,,---,0.00,VWS V14.01,2013-04-01 01:30:00,
2013-03-31 16:00:00,76.4,62.4,29.93,West,270,6.0,12.0,62,0.00,,---,0.00,VWS V14.01,2013-04-01 02:00:00,
2013-03-31 16:30:00,75.6,62.6,29.93,West,270,6.0,10.0,64,0.00,,---,0.00,VWS V14.01,2013-04-01 02:30:00,
2013-03-31 18:00:00,74.8,61.8,29.93,West,270,2.0,5.0,64,0.00,,---,0.00,VWS V14.01,2013-04-01 04:00:00,
2013-03-31 18:30:00,73.9,62.7,29.94,West,270,3.0,6.0,68,0.00,,---,0.00,VWS V14.01,2013-04-01 04:30:00,
2013-03-31 19:00:00,73.6,62.4,29.95,West,270,2.0,6.0,68,0.00,,---,0.00,VWS V14.01,2013-04-01 05:00:00,
2013-03-31 20:30:00,70.7,59.2,29.98,West,270,0.0,2.0,67,0.00,,---,0.00,VWS V14.01,2013-04-01 06:30:00,
2013-03-31 21:00:00,70.9,59.0,29.98,West,270,0.0,5.0,66,0.00,,---,0.00,VWS V14.01,2013-04-01 07:00:00,
2013-03-31 21:30:00,72.2,60.7,29.98,WNW,292,1.0,5.0,67,0.00,,---,0.00,VWS V14.01,2013-04-01 07:30:00,
2013-03-31 22:30:00,69.5,58.1,29.98,WNW,292,0.0,3.0,67,0.00,,---,0.00,VWS V14.01,2013-04-01 08:30:00,
2013-03-31 23:00:00,70.7,59.2,29.99,WNW,292,0.0,4.0,67,0.00,,---,0.00,VWS V14.01,2013-04-01 09:00:00,
2013-03-31 23:30:00,71.2,59.3,29.98,West,270,0.0,3.0,66,0.00,,---,0.00,VWS V14.01,2013-04-01 09:30:00,